This demonstration page uses our WeatherBlox Daily Observations layout. Learn more.

Left ArrowRight Arrow

36.19886, -115.1175

Hourly Observations for February 25, 2021

Temp ( °F °C ) Dew Point ( °F °C ) Humidity (%) Winds ( mph kmh ) Pressure ( in mb ) Visibility ( mi km ) Precip ( " mm )
12:53 am 00:53 Clear with Light Rain 46 7.8 9 -12.8 22 22 NNW 25 41 30.28 1025 10 16 0.00 0.00
1:53 am 01:53 Clear 46 7.8 9 -12.8 22 22 NW 24 39 30.29 1026 10 16 0.00 0.00
2:53 am 02:53 Clear 45 7.2 10 -12.2 24 24 NW 26 43 30.29 1026 10 16 0.00 0.00
3:53 am 03:53 Clear 44 6.7 10 -12.2 25 25 NW 25 41 30.30 1026 10 16 N/A
4:53 am 04:53 Clear 43 6.1 8 -13.3 24 24 NNW 21 33 30.32 1027 10 16 N/A
5:53 am 05:53 Clear 43 6.1 7 -13.9 22 22 NNW 21 33 30.32 1027 10 16 0.00 0.00
6:53 am 06:53 Sunny 43 6.1 6 -14.4 22 22 NW 18 30 30.35 1028 10 16 N/A
7:53 am 07:53 Sunny 45 7.2 5 -15 19 19 NNW 21 33 30.36 1028 10 16 0.00 0.00
8:53 am 08:53 Sunny 48 8.9 3 -16.1 15 15 NNW 17 28 30.35 1028 10 16 N/A
9:53 am 09:53 Sunny with Light Rain 50 10 2 -16.7 14 14 NW 22 35 30.33 1027 10 16 0.00 0.00
10:53 am 10:53 Sunny 52 11.1 N/A 11 11 NW 25 41 30.31 1026 10 16 0.00 0.00
11:53 am 11:53 Sunny 55 12.8 -1 -18.3 10 10 NW 26 43 30.27 1025 10 16 N/A
12:53 pm 12:53 Sunny 56 13.3 -2 -18.9 9 9 NNW 17 28 30.23 1024 10 16 0.00 0.00
1:53 pm 13:53 Sunny 58 14.4 -3 -19.4 8 8 N 10 17 30.19 1022 10 16 N/A
2:53 pm 14:53 Sunny 59 15 -4 -20 7 7 NW 7 11 30.17 1022 10 16 N/A
3:53 pm 15:53 Sunny 59 15 -6 -21.1 7 7 NW 9 15 30.14 1021 10 16 N/A
4:53 pm 16:53 Sunny 59 15 -7 -21.7 6 6 NW 10 17 30.13 1020 10 16 N/A
5:53 pm 17:53 Clear 56 13.3 -7 -21.7 7 7 N 5 7 30.12 1020 10 16 N/A
6:53 pm 18:53 Clear 55 12.8 -7 -21.7 7 7 N 3 6 30.12 1020 10 16 N/A
7:53 pm 19:53 Clear 50 10 -2 -18.9 11 11 WNW 8 13 30.13 1020 10 16 N/A
8:53 pm 20:53 Clear 49 9.4 N/A 13 13 W 9 15 30.13 1020 10 16 N/A
9:53 pm 21:53 Clear 46 7.8 2 -16.7 16 16 W 6 9 30.13 1020 10 16 N/A
10:53 pm 22:53 Clear 45 7.2 N/A 15 15 N N/A 30.11 1020 10 16 N/A
11:53 pm 23:53 Clear 43 6.1 2 -16.7 18 18 NW 5 7 30.11 1020 10 16 N/A

Powered by AerisWeather